Skip Page Navigation
NASA JPL Caltech
NASA Logo - Jet Propulsion Laboratory + View the NASA Portal
+ Near-Earth Object (NEO) Program
Search JPL
JPL Home Earth Solar System Stars & Galaxies Technology
JPL Solar System Dynamics
BODIES ORBITS EPHEMERIDES TOOLS PHYSICAL DATA DISCOVERY FAQ SITE MAP
JPL Small-Body Database Browser
Search: [ help ]  
(2003 YN107)
Classification: Aten [NEO]          SPK-ID: 3170221
Ephemeris | Orbit Diagram | Orbital Elements | Physical Parameters | Close-Approach Data ]

[ hide orbit diagram ]
Orbit Diagram
Note: Make sure you have Java enabled on your browser to see the applet. This applet is provided as a 3D orbit visualization tool. The applet was implemented using 2-body methods, and hence should not be used for determining accurate long-term trajectories (over several years or decades) or planetary encounter circumstances. For accurate long-term ephemerides, please instead use our Horizons system.
Orbit Viewer

Additional Notes: the orbits shown in the applet are color coded. The planets are white lines, and the asteroid/comet is a blue line. The bright white line indicates the portion of the orbit that is above the ecliptic plane, and the darker portion is below the ecliptic plane. Likewise for the asteroid/comet orbit, the light blue indicates the portion above the ecliptic plane, and the dark blue the portion below the ecliptic plane.

Orbit Viewer applet originally written and kindly provided by Osamu Ajiki (AstroArts), and further modified by Ron Baalke (JPL).


Orbital Elements at Epoch 2456400.5 (2013-Apr-18.0) TDB
Reference: JPL 14 (heliocentric ecliptic J2000)
 Element Value Uncertainty (1-sigma)   Units 
e .01393792639094766 2.5222e-07  
a .9887187812165215 4.6516e-08 AU
q .9749380916225781 2.0396e-07 AU
i 4.321083535786842 3.174e-05 deg
node 264.4316101934382 8.0061e-05 deg
peri 87.51670060306422 0.00013495 deg
M 254.3422062838148 0.00048469 deg
tp 2456505.891755770227
(2013-Aug-01.39175577)
0.00049083 JED
period 359.0935485478495
0.98
2.5341e-05
6.938e-08
d
yr
n 1.002524276628795 7.0748e-08 deg/d
Q 1.002499470810465 4.7164e-08 AU
  Orbit Determination Parameters
   # obs. used (total)      45  
   data-arc span      467 days (1.28 yr)  
   first obs. used      2003-12-20  
   last obs. used      2005-03-31  
   planetary ephem.      DE405  
   SB-pert. ephem.      SB405-CPV-2  
   condition code      0  
   fit RMS      .54971  
   data source      ORB  
   producer      Otto Matic  
   solution date      2011-Sep-14 19:53:45  

Additional Information
 Earth MOID = .00446832 AU 
 T_jup = 6.132 
[ show covariance matrix ]

Ephemeris | Orbit Diagram | Orbital Elements | Physical Parameters | Close-Approach Data ]

Physical Parameter Table
Parameter Symbol Value Units Sigma Reference Notes
absolute magnitude H 26.279 mag .70347 14 autocmod 2.5a

[ show close-approach data ]
Ephemeris | Orbit Diagram | Orbital Elements | Physical Parameters | Close-Approach Data ]
ABOUT SSD CREDITS/AWARDS PRIVACY/COPYRIGHT GLOSSARY LINKS
FirstGov 2013-May-19 06:51 UT
(server date/time)  
NASA Home Page
Site Manager:   Donald K. Yeomans
Webmaster  Alan B. Chamberlin